N5693P KGLS-KPKV

Flight info

Callsign N5693P
Flight time 0h 43m
Altitude 4500
Route PSX
Aircraft PA24/L-SDGRY/S

Departure

Time 2026-05-03 20:57
Airport Scholes International At Galveston Airport (KGLS)

Arrival

Time 2026-05-03 21:41
Airport Calhoun County Airport (KPKV)
Time Latitude Longitude Altitude Speed Heading
2026-05-03 20:36 29.26865 -94.85623 11 ft 0 kts 179°
2026-05-03 20:45 29.26861 -94.85623 11 ft 2 kts 194°
2026-05-03 20:46 29.26857 -94.85642 11 ft 4 kts 291°
2026-05-03 20:46 29.26880 -94.85687 10 ft 7 kts 283°
2026-05-03 20:46 29.26895 -94.85736 10 ft 7 kts 327°
2026-05-03 20:46 29.26936 -94.85740 9 ft 7 kts
2026-05-03 20:47 29.26979 -94.85739 9 ft 7 kts
2026-05-03 20:47 29.27044 -94.85738 10 ft 11 kts
2026-05-03 20:47 29.27115 -94.85736 12 ft 8 kts
2026-05-03 20:47 29.27177 -94.85735 12 ft 9 kts
2026-05-03 20:48 29.27223 -94.85763 12 ft 7 kts 309°
2026-05-03 20:48 29.27264 -94.85820 12 ft 9 kts 309°
2026-05-03 20:48 29.27298 -94.85873 13 ft 7 kts 307°
2026-05-03 20:48 29.27324 -94.85914 14 ft 5 kts 308°
2026-05-03 20:49 29.27347 -94.85951 15 ft 9 kts 301°
2026-05-03 20:49 29.27380 -94.86012 15 ft 8 kts 303°
2026-05-03 20:49 29.27405 -94.86058 15 ft 6 kts 301°
2026-05-03 20:49 29.27430 -94.86134 13 ft 12 kts 266°
2026-05-03 20:50 29.27415 -94.86217 12 ft 9 kts 255°
2026-05-03 20:50 29.27400 -94.86287 12 ft 10 kts 257°
2026-05-03 20:50 29.27384 -94.86359 12 ft 9 kts 257°
2026-05-03 20:50 29.27371 -94.86421 12 ft 7 kts 256°
2026-05-03 20:51 29.27361 -94.86470 13 ft 6 kts 256°
2026-05-03 20:51 29.27348 -94.86534 13 ft 8 kts 256°
2026-05-03 20:51 29.27335 -94.86589 12 ft 6 kts 254°
2026-05-03 20:51 29.27296 -94.86639 12 ft 10 kts 212°
2026-05-03 20:52 29.27249 -94.86670 12 ft 8 kts 210°
2026-05-03 20:52 29.27223 -94.86691 12 ft 3 kts 256°
2026-05-03 20:52 29.27218 -94.86698 12 ft 0 kts 167°
2026-05-03 20:56 29.27185 -94.86715 12 ft 8 kts 212°
2026-05-03 20:56 29.27135 -94.86723 12 ft 11 kts 148°
2026-05-03 20:56 29.26995 -94.86596 13 ft 54 kts 141°
2026-05-03 20:56 29.26602 -94.86228 119 ft 81 kts 140°
2026-05-03 20:57 29.26141 -94.85793 406 ft 89 kts 140°
2026-05-03 20:57 29.25643 -94.85340 715 ft 94 kts 142°
2026-05-03 20:57 29.25117 -94.84898 1070 ft 95 kts 144°
2026-05-03 20:57 29.24495 -94.84734 1414 ft 95 kts 187°
2026-05-03 20:58 29.23935 -94.85134 1667 ft 99 kts 225°
2026-05-03 20:58 29.23537 -94.85800 1910 ft 103 kts 236°
2026-05-03 20:58 29.23294 -94.86557 2221 ft 98 kts 257°
2026-05-03 20:58 29.23203 -94.87340 2476 ft 101 kts 257°
2026-05-03 20:59 29.23106 -94.88156 2712 ft 106 kts 258°
2026-05-03 20:59 29.23006 -94.89023 2939 ft 111 kts 259°
2026-05-03 20:59 29.22902 -94.89892 3232 ft 112 kts 259°
2026-05-03 20:59 29.22785 -94.90766 3487 ft 113 kts 254°
2026-05-03 21:00 29.22527 -94.91624 3721 ft 115 kts 246°
2026-05-03 21:00 29.22429 -94.91908 3828 ft 113 kts 246°
2026-05-03 21:00 29.21917 -94.93294 4224 ft 116 kts 245°
2026-05-03 21:00 29.21588 -94.94127 4477 ft 119 kts 245°
2026-05-03 21:01 29.21213 -94.95066 4507 ft 138 kts 246°
2026-05-03 21:01 29.20822 -94.96140 4516 ft 151 kts 249°
2026-05-03 21:01 29.20453 -94.97321 4489 ft 162 kts 253°
2026-05-03 21:01 29.20125 -94.98542 4503 ft 163 kts 253°
2026-05-03 21:02 29.19754 -94.99783 4499 ft 162 kts 251°
2026-05-03 21:02 29.19394 -95.00981 4485 ft 161 kts 251°
2026-05-03 21:02 29.19032 -95.02182 4487 ft 159 kts 251°
2026-05-03 21:02 29.18667 -95.03367 4490 ft 157 kts 250°
2026-05-03 21:03 29.18293 -95.04541 4491 ft 157 kts 251°
2026-05-03 21:03 29.17915 -95.05709 4492 ft 156 kts 251°
2026-05-03 21:03 29.17564 -95.06888 4489 ft 156 kts 252°
2026-05-03 21:03 29.17192 -95.08055 4490 ft 156 kts 248°
2026-05-03 21:04 29.16750 -95.09189 4492 ft 157 kts 246°
2026-05-03 21:04 29.16298 -95.10321 4485 ft 156 kts 246°
2026-05-03 21:04 29.16034 -95.11084 4490 ft 156 kts 250°
2026-05-03 21:04 29.15686 -95.12255 4487 ft 156 kts 252°
2026-05-03 21:05 29.15327 -95.13421 4486 ft 155 kts 250°
2026-05-03 21:05 29.14955 -95.14581 4485 ft 155 kts 249°
2026-05-03 21:05 29.14462 -95.16110 4482 ft 155 kts 251°
2026-05-03 21:05 29.14227 -95.16897 4483 ft 154 kts 252°
2026-05-03 21:06 29.13863 -95.18053 4481 ft 155 kts 249°
2026-05-03 21:06 29.13470 -95.19179 4486 ft 154 kts 248°
2026-05-03 21:06 29.13098 -95.20326 4483 ft 154 kts 251°
2026-05-03 21:06 29.12759 -95.21498 4484 ft 156 kts 250°
2026-05-03 21:07 29.12388 -95.22658 4485 ft 155 kts 250°
2026-05-03 21:07 29.12019 -95.23817 4485 ft 155 kts 251°
2026-05-03 21:07 29.11662 -95.24976 4486 ft 154 kts 249°
2026-05-03 21:07 29.11278 -95.26123 4485 ft 155 kts 249°
2026-05-03 21:08 29.10888 -95.27271 4486 ft 155 kts 248°
2026-05-03 21:08 29.10464 -95.28403 4489 ft 155 kts 246°
2026-05-03 21:08 29.10062 -95.29542 4485 ft 154 kts 249°
2026-05-03 21:08 29.09711 -95.30704 4485 ft 155 kts 249°
2026-05-03 21:09 29.09314 -95.31846 4488 ft 155 kts 248°
2026-05-03 21:09 29.08917 -95.32987 4489 ft 155 kts 248°
2026-05-03 21:09 29.08534 -95.34118 4485 ft 154 kts 249°
2026-05-03 21:09 29.08169 -95.35266 4490 ft 154 kts 249°
2026-05-03 21:10 29.07799 -95.36416 4497 ft 153 kts 251°
2026-05-03 21:10 29.07451 -95.37563 4511 ft 153 kts 250°
2026-05-03 21:10 29.07080 -95.38704 4519 ft 153 kts 249°
2026-05-03 21:10 29.06706 -95.39847 4522 ft 153 kts 250°
2026-05-03 21:11 29.06336 -95.40990 4525 ft 153 kts 249°
2026-05-03 21:11 29.05959 -95.42138 4524 ft 155 kts 249°
2026-05-03 21:11 29.05585 -95.43292 4524 ft 155 kts 250°
2026-05-03 21:11 29.05210 -95.44444 4525 ft 155 kts 248°
2026-05-03 21:12 29.04816 -95.45594 4525 ft 155 kts 249°
2026-05-03 21:12 29.04433 -95.46748 4525 ft 156 kts 249°
2026-05-03 21:12 29.04047 -95.47902 4523 ft 155 kts 249°
2026-05-03 21:12 29.03658 -95.49052 4520 ft 155 kts 249°
2026-05-03 21:13 29.03293 -95.50206 4521 ft 155 kts 250°
2026-05-03 21:13 29.02916 -95.51359 4523 ft 155 kts 248°
2026-05-03 21:13 29.02511 -95.52504 4525 ft 155 kts 247°
2026-05-03 21:13 29.02120 -95.53643 4522 ft 154 kts 249°
2026-05-03 21:14 29.01756 -95.54804 4524 ft 156 kts 250°
2026-05-03 21:14 29.01383 -95.55957 4524 ft 157 kts 249°
2026-05-03 21:14 29.00997 -95.57125 4526 ft 157 kts 249°
2026-05-03 21:14 29.00615 -95.58290 4525 ft 157 kts 250°
2026-05-03 21:15 29.00236 -95.59460 4523 ft 157 kts 250°
2026-05-03 21:15 28.99856 -95.60628 4524 ft 157 kts 249°
2026-05-03 21:15 28.99462 -95.61795 4524 ft 158 kts 249°
2026-05-03 21:15 28.99080 -95.62969 4522 ft 157 kts 249°
2026-05-03 21:16 28.98690 -95.64133 4504 ft 157 kts 249°
2026-05-03 21:16 28.98300 -95.65306 4500 ft 158 kts 249°
2026-05-03 21:16 28.97917 -95.66479 4496 ft 158 kts 250°
2026-05-03 21:16 28.97525 -95.67648 4497 ft 158 kts 248°
2026-05-03 21:17 28.97116 -95.68809 4498 ft 158 kts 249°
2026-05-03 21:17 28.96854 -95.69586 4501 ft 159 kts 249°
2026-05-03 21:17 28.96343 -95.71163 4496 ft 158 kts 248°
2026-05-03 21:17 28.95953 -95.72337 4490 ft 158 kts 249°
2026-05-03 21:18 28.95562 -95.73513 4489 ft 158 kts 248°
2026-05-03 21:18 28.95170 -95.74688 4490 ft 159 kts 249°
2026-05-03 21:18 28.94797 -95.75875 4488 ft 158 kts 250°
2026-05-03 21:18 28.94414 -95.77050 4490 ft 158 kts 248°
2026-05-03 21:19 28.94017 -95.78223 4485 ft 158 kts 248°
2026-05-03 21:19 28.93626 -95.79379 4485 ft 158 kts 248°
2026-05-03 21:19 28.93230 -95.80553 4488 ft 158 kts 248°
2026-05-03 21:19 28.92838 -95.81726 4485 ft 158 kts 248°
2026-05-03 21:20 28.92447 -95.82897 4489 ft 158 kts 248°
2026-05-03 21:20 28.92057 -95.84065 4484 ft 158 kts 248°
2026-05-03 21:20 28.91663 -95.85236 4487 ft 158 kts 248°
2026-05-03 21:20 28.91269 -95.86406 4484 ft 158 kts 248°
2026-05-03 21:21 28.90900 -95.87589 4482 ft 158 kts 250°
2026-05-03 21:21 28.90521 -95.88767 4476 ft 158 kts 248°
2026-05-03 21:21 28.90126 -95.89934 4478 ft 157 kts 248°
2026-05-03 21:21 28.89730 -95.91095 4474 ft 157 kts 248°
2026-05-03 21:22 28.89335 -95.92265 4477 ft 158 kts 248°
2026-05-03 21:22 28.88943 -95.93436 4481 ft 158 kts 248°
2026-05-03 21:22 28.88552 -95.94607 4485 ft 158 kts 248°
2026-05-03 21:22 28.88161 -95.95777 4484 ft 158 kts 248°
2026-05-03 21:23 28.87767 -95.96951 4483 ft 158 kts 248°
2026-05-03 21:23 28.87364 -95.98102 4485 ft 158 kts 248°
2026-05-03 21:23 28.86976 -95.99274 4491 ft 158 kts 249°
2026-05-03 21:23 28.86590 -96.00447 4488 ft 158 kts 248°
2026-05-03 21:24 28.86192 -96.01617 4491 ft 158 kts 248°
2026-05-03 21:24 28.85797 -96.02783 4490 ft 157 kts 248°
2026-05-03 21:24 28.85401 -96.03945 4493 ft 157 kts 248°
2026-05-03 21:24 28.85010 -96.05115 4495 ft 158 kts 248°
2026-05-03 21:25 28.84628 -96.06287 4515 ft 158 kts 249°
2026-05-03 21:25 28.84239 -96.07463 4517 ft 159 kts 248°
2026-05-03 21:25 28.83841 -96.08640 4517 ft 159 kts 249°
2026-05-03 21:25 28.83464 -96.09810 4516 ft 159 kts 249°
2026-05-03 21:26 28.83067 -96.10984 4514 ft 158 kts 248°
2026-05-03 21:26 28.82655 -96.12147 4512 ft 158 kts 246°
2026-05-03 21:26 28.82241 -96.13301 4506 ft 157 kts 248°
2026-05-03 21:26 28.81858 -96.14468 4511 ft 157 kts 249°
2026-05-03 21:27 28.81486 -96.15637 4514 ft 157 kts 250°
2026-05-03 21:27 28.81118 -96.16812 4514 ft 157 kts 249°
2026-05-03 21:27 28.80718 -96.17973 4515 ft 157 kts 248°
2026-05-03 21:27 28.80330 -96.19117 4517 ft 157 kts 248°
2026-05-03 21:28 28.79928 -96.20279 4518 ft 157 kts 248°
2026-05-03 21:28 28.79532 -96.21443 4518 ft 157 kts 249°
2026-05-03 21:28 28.79141 -96.22609 4517 ft 158 kts 248°
2026-05-03 21:28 28.78747 -96.23774 4516 ft 157 kts 248°
2026-05-03 21:29 28.78348 -96.24935 4513 ft 157 kts 248°
2026-05-03 21:29 28.77957 -96.26103 4511 ft 157 kts 249°
2026-05-03 21:29 28.77566 -96.27269 4514 ft 158 kts 249°
2026-05-03 21:29 28.77173 -96.28437 4514 ft 158 kts 249°
2026-05-03 21:30 28.76780 -96.29602 4516 ft 157 kts 249°
2026-05-03 21:30 28.76399 -96.30773 4515 ft 158 kts 250°
2026-05-03 21:30 28.76033 -96.31951 4514 ft 157 kts 249°
2026-05-03 21:30 28.75663 -96.33116 4412 ft 157 kts 251°
2026-05-03 21:31 28.75339 -96.34321 4221 ft 160 kts 253°
2026-05-03 21:31 28.74996 -96.35514 4125 ft 157 kts 249°
2026-05-03 21:31 28.74631 -96.36687 3986 ft 158 kts 249°
2026-05-03 21:31 28.74279 -96.37857 3841 ft 157 kts 250°
2026-05-03 21:32 28.73948 -96.39044 3677 ft 158 kts 251°
2026-05-03 21:32 28.73615 -96.40237 3546 ft 157 kts 249°
2026-05-03 21:32 28.73265 -96.41392 3494 ft 152 kts 250°
2026-05-03 21:32 28.72932 -96.42576 3283 ft 161 kts 248°
2026-05-03 21:33 28.72562 -96.43764 3261 ft 155 kts 248°
2026-05-03 21:33 28.72245 -96.44938 3157 ft 158 kts 252°
2026-05-03 21:33 28.71924 -96.46143 3035 ft 158 kts 248°
2026-05-03 21:33 28.71562 -96.47316 2960 ft 155 kts 246°
2026-05-03 21:34 28.71201 -96.48479 2838 ft 157 kts 250°
2026-05-03 21:34 28.70874 -96.49666 2765 ft 156 kts 248°
2026-05-03 21:34 28.70517 -96.50812 2714 ft 155 kts 249°
2026-05-03 21:34 28.70183 -96.51992 2634 ft 157 kts 249°
2026-05-03 21:35 28.69823 -96.53152 2581 ft 154 kts 246°
2026-05-03 21:35 28.69470 -96.54294 2488 ft 153 kts 247°
2026-05-03 21:35 28.69118 -96.55443 2372 ft 154 kts 246°
2026-05-03 21:35 28.68779 -96.56597 2272 ft 153 kts 246°
2026-05-03 21:36 28.68436 -96.57745 2157 ft 155 kts 246°
2026-05-03 21:36 28.68092 -96.58906 2096 ft 154 kts 248°
2026-05-03 21:36 28.67823 -96.60086 1991 ft 155 kts 259°
2026-05-03 21:36 28.67831 -96.61332 1949 ft 161 kts 274°
2026-05-03 21:37 28.68118 -96.62550 1961 ft 157 kts 290°
2026-05-03 21:37 28.68525 -96.63671 1836 ft 150 kts 290°
2026-05-03 21:37 28.68909 -96.64715 1843 ft 137 kts 291°
2026-05-03 21:37 28.69263 -96.65702 1773 ft 132 kts 290°
2026-05-03 21:38 28.69595 -96.66620 1680 ft 123 kts 290°
2026-05-03 21:38 28.69822 -96.67536 1551 ft 118 kts 274°
2026-05-03 21:38 28.69831 -96.68415 1545 ft 109 kts 257°
2026-05-03 21:38 28.69576 -96.69220 1406 ft 105 kts 234°
2026-05-03 21:39 28.69100 -96.69763 1258 ft 90 kts 208°
2026-05-03 21:39 28.68554 -96.70006 1063 ft 81 kts 180°
2026-05-03 21:39 28.67989 -96.69955 873 ft 79 kts 169°
2026-05-03 21:39 28.67478 -96.69817 723 ft 71 kts 150°
2026-05-03 21:40 28.67095 -96.69512 590 ft 67 kts 140°
2026-05-03 21:40 28.66724 -96.69197 429 ft 66 kts 143°
2026-05-03 21:40 28.66349 -96.68897 247 ft 67 kts 144°
2026-05-03 21:40 28.65975 -96.68598 61 ft 64 kts 139°
2026-05-03 21:41 28.65685 -96.68359 34 ft 37 kts 144°
2026-05-03 21:41 28.65532 -96.68233 34 ft 19 kts 144°
2026-05-03 21:41 28.65459 -96.68177 33 ft 8 kts 144°
2026-05-03 21:41 28.65416 -96.68187 33 ft 10 kts 236°
2026-05-03 21:42 28.65384 -96.68224 34 ft 6 kts 187°
2026-05-03 21:42 28.65337 -96.68193 34 ft 6 kts 144°
2026-05-03 21:42 28.65316 -96.68175 34 ft 4 kts 143°
2026-05-03 21:42 28.65283 -96.68184 35 ft 7 kts 232°
2026-05-03 21:43 28.65250 -96.68204 35 ft 5 kts 156°
2026-05-03 21:43 28.65219 -96.68177 35 ft 5 kts 143°
2026-05-03 21:43 28.65182 -96.68148 35 ft 6 kts 143°
2026-05-03 21:43 28.65159 -96.68129 35 ft 3 kts 145°
2026-05-03 21:44 28.65142 -96.68124 35 ft 4 kts 169°
2026-05-03 21:44 28.65135 -96.68119 35 ft 0 kts 144°
2026-05-03 21:44 28.65131 -96.68116 35 ft 1 kts 144°
2026-05-03 21:53 28.65116 -96.68100 29 ft 0 kts 133°
2026-05-03 21:53 28.65103 -96.68075 35 ft 7 kts 96°
2026-05-03 21:53 28.65121 -96.68040 35 ft 9 kts 38°
2026-05-03 21:53 28.65159 -96.68049 35 ft 10 kts 324°
2026-05-03 21:54 28.65258 -96.68129 35 ft 14 kts 325°
2026-05-03 21:54 28.65349 -96.68204 34 ft 16 kts 324°
2026-05-03 21:54 28.65414 -96.68254 35 ft 18 kts 323°
2026-05-03 21:54 28.65522 -96.68344 35 ft 21 kts 324°
2026-05-03 21:55 28.65643 -96.68440 35 ft 19 kts 323°
2026-05-03 21:55 28.65735 -96.68515 35 ft 14 kts 323°
2026-05-03 21:55 28.65797 -96.68565 35 ft 9 kts 324°
2026-05-03 21:55 28.65842 -96.68602 35 ft 11 kts 324°
2026-05-03 21:56 28.65882 -96.68634 35 ft 4 kts 324°
2026-05-03 21:56 28.65914 -96.68641 35 ft 3 kts 22°
2026-05-03 21:56 28.65915 -96.68640 35 ft 0 kts 22°
2026-05-03 21:57 28.65916 -96.68640 35 ft 3 kts 22°
2026-05-03 21:57 28.65946 -96.68595 34 ft 9 kts 83°
2026-05-03 21:58 28.65908 -96.68540 35 ft 14 kts 144°
2026-05-03 21:58 28.65639 -96.68325 67 ft 71 kts 139°
2026-05-03 21:58 28.65202 -96.67974 275 ft 81 kts 140°
2026-05-03 21:58 28.64725 -96.67592 556 ft 87 kts 140°
2026-05-03 21:59 28.64392 -96.67042 892 ft 85 kts 97°
2026-05-03 21:59 28.64623 -96.66331 1006 ft 116 kts 55°
2026-05-03 21:59 28.65242 -96.65652 1047 ft 129 kts 30°
2026-05-03 21:59 28.66158 -96.65672 1091 ft 143 kts 339°
2026-05-03 22:00 28.67002 -96.66314 1068 ft 144 kts 323°
2026-05-03 22:00 28.67714 -96.66959 1064 ft 116 kts 322°
2026-05-03 22:00 28.68272 -96.67462 1123 ft 94 kts 322°
2026-05-03 22:00 28.68639 -96.68052 1008 ft 93 kts 279°
2026-05-03 22:01 28.68587 -96.68753 896 ft 84 kts 237°
2026-05-03 22:01 28.68300 -96.69303 813 ft 81 kts 225°
2026-05-03 22:01 28.67890 -96.69701 733 ft 75 kts 192°
2026-05-03 22:01 28.67398 -96.69742 592 ft 68 kts 157°
2026-05-03 22:02 28.67015 -96.69488 465 ft 62 kts 136°
2026-05-03 22:02 28.66692 -96.69202 323 ft 55 kts 136°
2026-05-03 22:02 28.66365 -96.68911 179 ft 62 kts 139°
2026-05-03 22:02 28.66016 -96.68629 51 ft 56 kts 139°
2026-05-03 22:03 28.65781 -96.68435 35 ft 29 kts 144°
2026-05-03 22:03 28.65543 -96.68243 35 ft 68 kts 144°
2026-05-03 22:03 28.65107 -96.67887 187 ft 82 kts 139°
2026-05-03 22:03 28.64633 -96.67496 468 ft 86 kts 139°
2026-05-03 22:04 28.64209 -96.67024 798 ft 86 kts 117°
2026-05-03 22:04 28.64197 -96.66350 1081 ft 95 kts 68°
2026-05-03 22:04 28.64643 -96.65733 1360 ft 105 kts 50°
2026-05-03 22:04 28.65160 -96.65134 1689 ft 106 kts 50°
2026-05-03 22:05 28.65678 -96.64570 2016 ft 103 kts 47°
2026-05-03 22:05 28.66219 -96.64027 2309 ft 104 kts 45°
2026-05-03 22:05 28.66790 -96.63482 2570 ft 110 kts 45°
2026-05-03 22:05 28.67368 -96.62933 2876 ft 107 kts 45°
2026-05-03 22:06 28.67958 -96.62398 2997 ft 124 kts 43°
2026-05-03 22:06 28.68686 -96.61723 2976 ft 139 kts 43°
2026-05-03 22:06 28.69242 -96.60846 3092 ft 138 kts 75°
2026-05-03 22:06 28.69265 -96.59737 2995 ft 149 kts 107°
2026-05-03 22:07 28.68705 -96.58778 3063 ft 141 kts 139°
2026-05-03 22:07 28.67861 -96.58259 3123 ft 140 kts 163°
2026-05-03 22:07 28.66841 -96.58202 3020 ft 149 kts 180°
2026-05-03 22:07 28.65785 -96.58300 2902 ft 149 kts 183°
2026-05-03 22:08 28.64843 -96.58448 2844 ft 126 kts 186°
2026-05-03 22:08 28.64080 -96.58632 2852 ft 94 kts 189°
2026-05-03 22:08 28.63547 -96.58777 2870 ft 67 kts 184°
2026-05-03 22:08 28.63133 -96.58854 2850 ft 57 kts 175°
2026-05-03 22:09 28.62738 -96.58905 2848 ft 59 kts 177°
2026-05-03 22:09 28.62337 -96.58948 2889 ft 56 kts 176°
2026-05-03 22:09 28.61966 -96.59032 2931 ft 55 kts 181°
2026-05-03 22:10 28.61232 -96.59230 2978 ft 52 kts 180°
2026-05-03 22:10 28.60883 -96.59317 2992 ft 51 kts 176°
2026-05-03 22:10 28.60550 -96.59463 2985 ft 54 kts 200°
2026-05-03 22:10 28.60292 -96.59791 2992 ft 58 kts 231°
2026-05-03 22:11 28.60197 -96.60233 3017 ft 58 kts 249°
2026-05-03 22:11 28.60211 -96.60709 3022 ft 62 kts 269°
2026-05-03 22:11 28.60279 -96.61202 3051 ft 64 kts 275°
2026-05-03 22:11 28.60355 -96.61689 3079 ft 62 kts 267°
2026-05-03 22:12 28.60401 -96.62179 3049 ft 65 kts 272°
2026-05-03 22:12 28.60476 -96.62691 2996 ft 65 kts 276°
2026-05-03 22:12 28.60586 -96.63182 2973 ft 62 kts 274°
2026-05-03 22:12 28.60651 -96.63668 2976 ft 63 kts 274°
2026-05-03 22:13 28.60716 -96.64163 3002 ft 63 kts 271°
2026-05-03 22:13 28.60724 -96.64660 2983 ft 64 kts 248°
2026-05-03 22:13 28.60518 -96.65074 2980 ft 59 kts 217°
2026-05-03 22:13 28.60199 -96.65349 2967 ft 56 kts 192°
2026-05-03 22:14 28.59829 -96.65467 2948 ft 56 kts 173°
2026-05-03 22:14 28.59466 -96.65545 2926 ft 52 kts 174°
2026-05-03 22:14 28.59109 -96.65622 2857 ft 58 kts 179°
2026-05-03 22:14 28.58620 -96.65699 2638 ft 76 kts 182°
2026-05-03 22:15 28.58146 -96.65798 2654 ft 45 kts 178°
2026-05-03 22:15 28.57698 -96.65857 2662 ft 75 kts 181°
2026-05-03 22:15 28.57163 -96.65972 2920 ft 83 kts 182°
2026-05-03 22:15 28.56497 -96.66045 2977 ft 112 kts 168°
2026-05-03 22:16 28.55761 -96.65682 3126 ft 117 kts 133°
2026-05-03 22:16 28.55449 -96.64836 3221 ft 129 kts 88°
2026-05-03 22:16 28.55831 -96.63859 3109 ft 146 kts 52°
2026-05-03 22:16 28.56619 -96.63089 3047 ft 153 kts 38°
2026-05-03 22:17 28.57527 -96.62430 2966 ft 157 kts 26°
2026-05-03 22:17 28.58564 -96.62206 3054 ft 153 kts
2026-05-03 22:17 28.59658 -96.62270 2967 ft 160 kts 358°
2026-05-03 22:17 28.60753 -96.62351 2960 ft 156 kts 359°
2026-05-03 22:18 28.61821 -96.62457 2948 ft 152 kts 357°
2026-05-03 22:18 28.62873 -96.62562 2911 ft 150 kts 358°
2026-05-03 22:18 28.63891 -96.62651 2984 ft 142 kts
2026-05-03 22:18 28.64319 -96.61923 3014 ft 139 kts 126°
2026-05-03 22:19 28.63482 -96.61981 3001 ft 147 kts 232°
2026-05-03 22:19 28.63626 -96.63028 3057 ft 145 kts 321°
2026-05-03 22:19 28.64580 -96.63154 3039 ft 142 kts
2026-05-03 22:19 28.65516 -96.63289 2746 ft 136 kts 342°
2026-05-03 22:20 28.66245 -96.63877 2526 ft 122 kts 310°
2026-05-03 22:20 28.66468 -96.64769 2273 ft 117 kts 269°
2026-05-03 22:20 28.66460 -96.65709 1989 ft 116 kts 269°
2026-05-03 22:20 28.66460 -96.66593 1812 ft 108 kts 269°
2026-05-03 22:21 28.66465 -96.67459 1638 ft 112 kts 269°
2026-05-03 22:21 28.66459 -96.68346 1477 ft 111 kts 270°
2026-05-03 22:21 28.66360 -96.69196 1280 ft 106 kts 249°
2026-05-03 22:21 28.66005 -96.69905 1069 ft 98 kts 230°
2026-05-03 22:22 28.65582 -96.70478 908 ft 87 kts 215°
2026-05-03 22:22 28.65049 -96.70730 794 ft 79 kts 179°
2026-05-03 22:22 28.64558 -96.70566 698 ft 73 kts 142°
2026-05-03 22:22 28.64296 -96.70072 557 ft 74 kts 98°
2026-05-03 22:23 28.64500 -96.69593 341 ft 73 kts 53°
2026-05-03 22:23 28.64811 -96.69145 138 ft 72 kts 63°
2026-05-03 22:23 28.65072 -96.68740 38 ft 51 kts 65°
2026-05-03 22:23 28.65214 -96.68507 35 ft 24 kts 54°
2026-05-03 22:24 28.65292 -96.68384 35 ft 16 kts 53°
2026-05-03 22:24 28.65358 -96.68283 35 ft 11 kts 53°
2026-05-03 22:24 28.65382 -96.68238 35 ft 6 kts 95°
2026-05-03 22:24 28.65355 -96.68207 34 ft 5 kts 143°
2026-05-03 22:25 28.65327 -96.68184 34 ft 5 kts 145°
2026-05-03 22:25 28.65299 -96.68169 35 ft 4 kts 191°
2026-05-03 22:25 28.65270 -96.68203 35 ft 8 kts 234°
2026-05-03 22:25 28.65252 -96.68229 35 ft 3 kts 217°
2026-05-03 22:26 28.65236 -96.68239 35 ft 2 kts 212°
2026-05-03 22:26 28.65221 -96.68260 35 ft 4 kts 225°
2026-05-03 22:26 28.65208 -96.68262 35 ft 1 kts 165°
2026-05-03 22:26 28.65204 -96.68260 35 ft 0 kts 142°